| time (UTC) | temp F | wind direction | speed knots | gust knots | rain 1hr in | rain 24hr in | rain mn in | humidity % | barometer mb |
| 20260505083102 | 69 | 190 | 7.8 | 13.0 | 0.00 | 0.00 | 0.00 | 24 | 1003.7 |
| 20260505081553 | 71 | 190 | 7.8 | 17.4 | 0.00 | 0.00 | 0.00 | 22 | 1003.2 |
| 20260505080044 | 72 | 190 | 10.4 | 15.6 | 0.00 | 0.00 | 0.00 | 21 | 1003.1 |
| 20260505074544 | 72 | 190 | 6.1 | 10.4 | 0.00 | 0.00 | 0.00 | 21 | 1002.8 |
| 20260505073038 | 72 | 190 | 5.2 | 10.4 | 0.00 | 0.00 | 0.00 | 21 | 1002.7 |
| 20260505071539 | 73 | 190 | 5.2 | 9.6 | 0.00 | 0.00 | 0.00 | 21 | 1002.9 |
| 20260505070039 | 73 | 190 | 5.2 | 9.6 | 0.00 | 0.00 | 0.00 | 22 | 1003.2 |
| 20260505064550 | 73 | 190 | 4.3 | 8.7 | 0.00 | 0.00 | 0.00 | 23 | 1003.3 |
| 20260505063027 | 74 | 190 | 4.3 | 8.7 | 0.00 | 0.00 | 0.00 | 21 | 1003.4 |
| 20260505061536 | 75 | 190 | 6.1 | 12.2 | 0.00 | 0.00 | 0.00 | 20 | 1003.2 |
| 20260505060029 | 75 | 190 | 7.0 | 10.4 | 0.00 | 0.00 | 0.00 | 20 | 1003.1 |
| 20260505054524 | 74 | 190 | 5.2 | 12.2 | 0.00 | 0.00 | 0.00 | 20 | 1003.2 |
| 20260505053021 | 74 | 190 | 5.2 | 8.7 | 0.00 | 0.00 | 0.00 | 19 | 1003.3 |
| 20260505051518 | 74 | 190 | 6.1 | 11.3 | 0.00 | 0.00 | 0.00 | 17 | 1003.4 |
| 20260505041524 | 75 | 190 | 5.2 | 8.7 | 0.00 | 0.00 | 0.00 | 16 | 1003.2 |
| 20260505040014 | 76 | 190 | 5.2 | 8.7 | 0.00 | 0.00 | 0.00 | 15 | 1003.1 |
| 20260505034511 | 76 | 190 | 6.1 | 10.4 | 0.00 | 0.00 | 0.00 | 15 | 1003.1 |
| 20260505033013 | 77 | 190 | 5.2 | 8.7 | 0.00 | 0.00 | 0.00 | 15 | 1003.2 |
| 20260505031509 | 76 | 190 | 5.2 | 8.7 | 0.00 | 0.00 | 0.00 | 16 | 1002.9 |
| 20260505030009 | 77 | 190 | 2.6 | 8.7 | 0.00 | 0.00 | 0.00 | 15 | 1002.8 |
| 20260505024521 | 78 | 190 | 2.6 | 9.6 | 0.00 | 0.00 | 0.00 | 14 | 1002.7 |
| 20260505023006 | 79 | 190 | 3.5 | 6.1 | 0.00 | 0.00 | 0.00 | 14 | 1002.6 |
| 20260505021506 | 79 | 190 | 2.6 | 6.1 | 0.00 | 0.00 | 0.00 | 14 | 1002.4 |
| 20260505020004 | 79 | 190 | 2.6 | 5.2 | 0.00 | 0.00 | 0.00 | 16 | 1002.4 |
| 20260505014504 | 79 | 190 | 2.6 | 6.1 | 0.00 | 0.00 | 0.00 | 19 | 1002.4 |
| 20260505013011 | 80 | 190 | 2.6 | 5.2 | 0.00 | 0.00 | 0.00 | 18 | 1002.3 |
| 20260505011503 | 81 | 190 | 0.9 | 5.2 | 0.00 | 0.00 | 0.00 | 18 | 1002.2 |
| 20260505010001 | 82 | 190 | 2.6 | 7.8 | 0.00 | 0.00 | 0.00 | 15 | 1002.4 |
| 20260505004600 | 83 | 190 | 4.3 | 9.6 | 0.00 | 0.00 | 0.00 | 16 | 1002.4 |
| 20260505003058 | 84 | 190 | 5.2 | 9.6 | 0.00 | 0.00 | 0.00 | 16 | 1002.6 |
| 20260505001557 | 84 | 190 | 6.1 | 11.3 | 0.00 | 0.00 | 0.00 | 16 | 1002.5 |
| 20260505000106 | 84 | 190 | 6.1 | 12.2 | 0.00 | 0.00 | 0.00 | 16 | 1002.8 |
| 20260504234605 | 84 | 190 | 4.3 | 13.9 | 0.00 | 0.00 | 0.00 | 17 | 1003.3 |
| 20260504233051 | 84 | 190 | 7.0 | 11.3 | 0.00 | 0.00 | 0.00 | 19 | 1003.3 |
| 20260504231600 | 85 | 190 | 5.2 | 11.3 | 0.00 | 0.00 | 0.00 | 17 | 1003.3 |
| 20260504230050 | 85 | 190 | 5.2 | 9.6 | 0.00 | 0.00 | 0.00 | 19 | 1003.3 |
| 20260504224549 | 86 | 190 | 4.3 | 9.6 | 0.00 | 0.00 | 0.00 | 16 | 1003.2 |
| 20260504223048 | 86 | 190 | 5.2 | 8.7 | 0.00 | 0.00 | 0.00 | 17 | 1003.5 |
| 20260504221556 | 86 | 190 | 7.0 | 13.9 | 0.00 | 0.00 | 0.00 | 17 | 1003.6 |
| 20260504220044 | 86 | 190 | 4.3 | 9.6 | 0.00 | 0.00 | 0.00 | 18 | 1003.8 |
| 20260504214543 | 86 | 190 | 7.0 | 13.0 | 0.00 | 0.00 | 0.00 | 17 | 1004.0 |
| 20260504213040 | 86 | 190 | 7.8 | 15.6 | 0.00 | 0.00 | 0.00 | 15 | 1004.4 |
| 20260504211544 | 86 | 190 | 9.6 | 15.6 | 0.00 | 0.00 | 0.00 | 17 | 1004.7 |
| 20260504210051 | 85 | 190 | 10.4 | 16.5 | 0.00 | 0.00 | 0.00 | 17 | 1005.1 |
| 20260504204534 | 85 | 190 | 6.1 | 12.2 | 0.00 | 0.00 | 0.00 | 18 | 1005.1 |
| 20260504203034 | 85 | 190 | 7.0 | 16.5 | 0.00 | 0.00 | 0.00 | 17 | 1005.2 |
| 20260504201531 | 85 | 190 | 7.8 | 19.1 | 0.00 | 0.00 | 0.00 | 17 | 1005.6 |
| 20260504200029 | 86 | 190 | 7.0 | 16.5 | 0.00 | 0.00 | 0.00 | 18 | 1005.7 |
| 20260504194537 | 85 | 190 | 7.8 | 14.8 | 0.00 | 0.00 | 0.00 | 18 | 1005.9 |
| 20260504193023 | 85 | 190 | 7.0 | 13.9 | 0.00 | 0.00 | 0.00 | 19 | 1006.2 |
| 20260504191526 | 85 | 190 | 7.0 | 11.3 | 0.00 | 0.00 | 0.00 | 19 | 1006.4 |
| 20260504190021 | 84 | 190 | 9.6 | 16.5 | 0.00 | 0.00 | 0.00 | 19 | 1006.5 |
| 20260504184517 | 85 | 190 | 7.8 | 13.9 | 0.00 | 0.00 | 0.00 | 20 | 1006.8 |
| 20260504183015 | 85 | 190 | 9.6 | 15.6 | 0.00 | 0.00 | 0.00 | 19 | 1007.0 |
| 20260504181511 | 84 | 190 | 7.8 | 13.9 | 0.00 | 0.00 | 0.00 | 20 | 1007.3 |
| 20260504180013 | 84 | 190 | 6.1 | 12.2 | 0.00 | 0.00 | 0.00 | 21 | 1007.8 |
| 20260504174506 | 84 | 190 | 9.6 | 16.5 | 0.00 | 0.00 | 0.00 | 21 | 1007.9 |
| 20260504173012 | 84 | 190 | 6.1 | 13.0 | 0.00 | 0.00 | 0.00 | 23 | 1008.2 |
| 20260504171501 | 83 | 190 | 8.7 | 14.8 | 0.00 | 0.00 | 0.00 | 22 | 1008.5 |